Location: Mizzole
(45.4833°N, 11.0500°E)
Time: 13:06:01
(UTC+00:00)

Cosmos 1934 Rocket - Pass Details

Date: 21 October 2019
Orbit: 939 x 998 km, 83.0° (Epoch: 12 November)

Event Time Altitude Azimuth Distance (km) Brightness Sun altitude
Rises 17:04:31 0° 351° (N) 3,710 7.1 -8.4°
Reaches altitude 10° 17:07:02 10° 352° (N) 2,764 6.4 -8.8°
Maximum altitude 17:13:25 90° 87° (E) 1,004 4.1 -9.9°
Drops below altitude 10° 17:19:47 10° 174° (S) 2,759 6.4 -11.0°
Sets 17:22:18 0° 174° (S) 3,704 7.0 -11.5°
